Location: Anjeux
(47.8815°N, 6.2076°E)
Time: 15:16:20
(UTC+00:00)

CZ-2C R/B - Pass Details

Date: 05 March 2021
Orbit: 667 x 785 km, 98.2° (Epoch: 17 April)

Event Time Altitude Azimuth Distance (km) Brightness Sun altitude
Rises 02:50:39 0° 21° (NNE) 3,144 6.4 -32.8°
Reaches altitude 10° 02:53:09 10° 30° (NNE) 2,199 5.5 -32.4°
Enters shadow 02:57:30 35° 95° (E) 1,127 3.7 -31.8°
